Volver al catálogo

STARLINK-32567

ActivoComunicacionesVLEO
NORAD 61930·PAYLOAD·🇺🇸 United States

Lanzado Nov 11, 2024 desde Cape Canaveral Space Force Station

Loading…

Próximos Pases (próximas 24 horas)

TLE

ActualizadoSource: CelesTrak SupGP

Época: Sep 14, 2026, 22:09 UTC

1 61930C 24207U   26257.92340278  .00016970  00000+0  61471-3 0  2572
2 61930  43.0016 289.6667 0001450 263.4703  30.4495 15.27565746    18

Sigue STARLINK-32567 en tiempo real con AllMySat

Download on the App Store